Bookmark and Share
Track history (hours):
 

Island Breeze

More information available from US FCC via Universal Licensing System and Coast Guard Vessel Documentation Center.

Last reported at 2014-Apr-23 14:33 UTC. Time now 2014-Apr-23 15:26 UTC.
Position N 47°08' W 122°39'.

Length 18 m.

MMSI: 366800090.

NotesDate/timePositionNaut miles runAvg speedWind from/ knotsBaromVisibWave heightAir tempDewpointWater temp
2014-Apr-23 14:33N 47°08' W 122°39'1 0.5
2014-Apr-23 13:33N 47°09' W 122°38'0 0.0
2014-Apr-23 12:33N 47°09' W 122°38'0 0.0
2014-Apr-23 11:33N 47°09' W 122°38'0 0.0
2014-Apr-23 10:33N 47°09' W 122°38'4 4.1
2014-Apr-23 09:29N 47°13' W 122°36'6 5.8
2014-Apr-23 08:33N 47°18' W 122°33'6 6.5
2014-Apr-23 07:33N 47°24' W 122°32'7 6.6
2014-Apr-23 06:33N 47°30' W 122°29'3 7.0
2014-Apr-23 06:10N 47°33' W 122°28'2 7.2
2014-Apr-23 05:50N 47°35' W 122°28'2 7.1
2014-Apr-23 05:33N 47°37' W 122°28'4 3.8
2014-Apr-23 04:33N 47°40' W 122°24'0 0.0
2014-Apr-23 04:30N 47°40' W 122°24'4 4.4
2014-Apr-23 03:33N 47°39' W 122°18'0 6.0
2014-Apr-23 03:29N 47°39' W 122°17'5 5.7
2014-Apr-23 02:33N 47°44' W 122°16'1 1.4
2014-Apr-23 01:33N 47°45' W 122°15'0 1.2
2014-Apr-23 01:10N 47°45' W 122°16'0 0.5
2014-Apr-23 00:33N 47°45' W 122°16'2 5.7
2014-Apr-23 00:09N 47°43' W 122°16'3 5.8
2014-Apr-22 23:33N 47°39' W 122°16'2 5.3
2014-Apr-22 23:10N 47°39' W 122°19'2 2.6
2014-Apr-22 22:33N 47°39' W 122°21'0 5.4
2014-Apr-22 22:30N 47°39' W 122°22'2 2.6
2014-Apr-22 21:33N 47°41' W 122°25'6 5.8
2014-Apr-22 20:33N 47°35' W 122°27'7 7.0
2014-Apr-22 19:33N 47°28' W 122°30'1 6.9
2014-Apr-22 19:24N 47°27' W 122°31'6 7.1
2014-Apr-22 18:33N 47°22' W 122°32'6 6.0
2014-Apr-22 17:33N 47°16' W 122°33'6 6.3
2014-Apr-22 16:33N 47°10' W 122°38'2 2.1
2014-Apr-22 15:33N 47°08' W 122°39'1 0.5
2014-Apr-22 14:30N 47°09' W 122°38'0 0.1
2014-Apr-22 13:32N 47°09' W 122°38'0 0.1
2014-Apr-22 12:33N 47°09' W 122°38'2 1.9
2014-Apr-22 11:32N 47°11' W 122°38'6 6.5
2014-Apr-22 10:33N 47°16' W 122°33'6 6.0
2014-Apr-22 09:33N 47°22' W 122°32'5 7.1
2014-Apr-22 08:51N 47°27' W 122°31'2 7.6
2014-Apr-22 08:33N 47°29' W 122°30'1 7.3
2014-Apr-22 08:26N 47°30' W 122°30'7 7.6
2014-Apr-22 07:33N 47°37' W 122°28'0 7.1
2014-Apr-22 07:31N 47°37' W 122°28'4 4.4
2014-Apr-22 06:33N 47°40' W 122°24'0 0.0
2014-Apr-22 06:31N 47°40' W 122°24'4 4.1
2014-Apr-22 05:32N 47°39' W 122°18'1 6.2
2014-Apr-22 05:21N 47°39' W 122°16'6 7.1
2014-Apr-22 04:33N 47°45' W 122°16'  
2014-Apr-19 01:13N 47°45' W 122°15'0 0.5
2014-Apr-19 00:34N 47°45' W 122°16'3 3.7
2014-Apr-18 23:45N 47°42' W 122°15'1 6.7
2014-Apr-18 23:33N 47°41' W 122°14'0 6.2
2014-Apr-18 23:30N 47°41' W 122°14'4 4.6
2014-Apr-18 22:33N 47°39' W 122°20'0 3.7
2014-Apr-18 22:30N 47°39' W 122°20'3 2.9
2014-Apr-18 21:33N 47°40' W 122°24'0 0.7
2014-Apr-18 21:29N 47°40' W 122°24'1 1.3
2014-Apr-18 20:34N 47°41' W 122°25'0 5.6
2014-Apr-18 20:30N 47°41' W 122°26'7 7.4
2014-Apr-18 19:34N 47°34' W 122°27'0 6.8
2014-Apr-18 19:29N 47°33' W 122°27'8 8.3
2014-Apr-18 18:33N 47°26' W 122°31'1 8.1
2014-Apr-18 18:24N 47°25' W 122°32'8 9.1
2014-Apr-18 17:32N 47°17' W 122°32'9 8.9
2014-Apr-18 16:33N 47°09' W 122°39'1 1.1
2014-Apr-18 15:21N 47°08' W 122°39'0 0.0
2014-Apr-18 14:32N 47°08' W 122°39'0 0.2
2014-Apr-18 13:29N 47°08' W 122°39'4 3.8
2014-Apr-18 12:24N 47°12' W 122°36'7 8.1
2014-Apr-18 11:33N 47°19' W 122°33'7 7.3
2014-Apr-18 10:32N 47°26' W 122°31'7 6.5
2014-Apr-18 09:32N 47°32' W 122°28'2 7.3
2014-Apr-18 09:14N 47°34' W 122°28'5 7.0
2014-Apr-18 08:33N 47°39' W 122°28'0 6.2
2014-Apr-18 08:29N 47°39' W 122°28'3 3.5
2014-Apr-18 07:33N 47°40' W 122°24'0 3.1
2014-Apr-18 07:29N 47°40' W 122°23'4 3.9
2014-Apr-18 06:34N 47°39' W 122°18'0 5.8
2014-Apr-18 06:29N 47°39' W 122°18'5 5.5
2014-Apr-18 05:33N 47°44' W 122°16'1 0.9
2014-Apr-18 04:33N 47°45' W 122°16'1 1.4
2014-Apr-18 03:34N 47°43' W 122°16'1 6.1
2014-Apr-18 03:28N 47°43' W 122°16'4 4.6
2014-Apr-18 02:32N 47°39' W 122°18'2 3.4
2014-Apr-18 02:03N 47°39' W 122°20'2 4.2
2014-Apr-18 01:34N 47°40' W 122°23'0 3.0
2014-Apr-18 01:29N 47°40' W 122°23'0 0.1
2014-Apr-18 00:33N 47°40' W 122°23'0 0.0
2014-Apr-18 00:29N 47°40' W 122°23'0 0.4
2014-Apr-17 23:34N 47°40' W 122°24'0 0.0
2014-Apr-17 23:33N 47°40' W 122°24'1 0.6
2014-Apr-17 22:34N 47°40' W 122°24'0 0.0
2014-Apr-17 22:33N 47°40' W 122°24'3 2.7
2014-Apr-17 21:34N 47°38' W 122°27'0 0.0
2014-Apr-17 21:33N 47°38' W 122°27'7 6.7
2014-Apr-17 20:34N 47°31' W 122°29'0 0.0
2014-Apr-17 20:33N 47°31' W 122°29'8 8.1
2014-Apr-17 19:33N 47°24' W 122°32'0 0.0
2014-Apr-17 19:33N 47°24' W 122°32'9 9.4
2014-Apr-17 18:33N 47°14' W 122°34'7 3.5
2014-Apr-17 16:33N 47°08' W 122°39'0 0.0
2014-Apr-17 14:33N 47°08' W 122°39'1 0.6
2014-Apr-17 13:33N 47°09' W 122°38'2 1.7
2014-Apr-17 12:32N 47°10' W 122°38'9 9.1
2014-Apr-17 11:33N 47°19' W 122°33'8 7.7
2014-Apr-17 10:34N 47°26' W 122°32'8 7.6
2014-Apr-17 09:34N 47°33' W 122°28'3 7.1
2014-Apr-17 09:04N 47°36' W 122°24'2 4.6
2014-Apr-17 08:34N 47°34' W 122°21'0 0.0
2014-Apr-17 08:29N 47°34' W 122°21'0 0.5
2014-Apr-17 07:33N 47°34' W 122°21'0 6.7
2014-Apr-17 07:29N 47°34' W 122°21'0 0.4
2014-Apr-17 06:33N 47°34' W 122°21'0 0.1
2014-Apr-17 06:29N 47°34' W 122°21'0 0.4
2014-Apr-17 05:44N 47°34' W 122°21'0 0.0
2014-Apr-17 05:33N 47°34' W 122°21'0 0.0
2014-Apr-17 04:33N 47°34' W 122°21'0 0.0
2014-Apr-17 04:29N 47°34' W 122°21'2 1.7
2014-Apr-17 03:34N 47°35' W 122°22'0 0.0
2014-Apr-17 03:29N 47°35' W 122°22'2 2.1
2014-Apr-17 02:34N 47°33' W 122°21'0 7.0
2014-Apr-17 02:29N 47°34' W 122°21'1 0.6
2014-Apr-17 01:34N 47°34' W 122°21'0 0.0
2014-Apr-17 01:28N 47°34' W 122°21'0 0.0
2014-Apr-17 00:34N 47°34' W 122°21'0 0.0
2014-Apr-17 00:34N 47°34' W 122°21'0 0.0
2014-Apr-16 23:34N 47°34' W 122°21'0 0.0
2014-Apr-16 23:33N 47°34' W 122°21'0 0.0
2014-Apr-16 22:33N 47°34' W 122°21'0 0.0
2014-Apr-16 22:29N 47°34' W 122°21'0 0.0
2014-Apr-16 21:33N 47°34' W 122°21'0 0.0
2014-Apr-16 21:33N 47°34' W 122°21'0 0.0
2014-Apr-16 20:33N 47°34' W 122°21'0 0.0
2014-Apr-16 20:33N 47°34' W 122°21'0 0.0
2014-Apr-16 19:33N 47°34' W 122°21'0 0.0
2014-Apr-16 18:33N 47°34' W 122°21'0 0.0
2014-Apr-16 17:33N 47°34' W 122°21'0 0.0
2014-Apr-16 17:33N 47°34' W 122°21'0 0.0
2014-Apr-16 16:33N 47°34' W 122°21'0 0.0
2014-Apr-16 16:33N 47°34' W 122°21'0 0.0
2014-Apr-16 15:33N 47°34' W 122°21'0 0.0
2014-Apr-16 15:33N 47°34' W 122°21'0 0.0
2014-Apr-16 14:33N 47°34' W 122°21'0 0.0
2014-Apr-16 14:33N 47°34' W 122°21'0 0.5
2014-Apr-16 13:33N 47°34' W 122°21'0 0.0
2014-Apr-16 13:33N 47°34' W 122°21'0 0.3
2014-Apr-16 12:33N 47°34' W 122°21'0 0.0
2014-Apr-16 12:33N 47°34' W 122°21'1 0.7
2014-Apr-16 11:33N 47°34' W 122°21'0 0.0
2014-Apr-16 11:32N 47°34' W 122°21'0 0.0
2014-Apr-16 10:33N 47°34' W 122°21'0 0.0
2014-Apr-16 10:33N 47°34' W 122°21'4 4.2
2014-Apr-16 09:33N 47°38' W 122°25'0 5.7
2014-Apr-16 09:33N 47°38' W 122°25'2 2.5
2014-Apr-16 08:33N 47°40' W 122°24'0 0.0
2014-Apr-16 08:33N 47°40' W 122°24'5 4.7
2014-Apr-16 07:33N 47°39' W 122°17'0 7.3
2014-Apr-16 07:33N 47°39' W 122°17'6 5.9
2014-Apr-16 06:33N 47°45' W 122°16'0 4.0
2014-Apr-16 06:28N 47°45' W 122°16'1 0.6
2014-Apr-16 05:32N 47°45' W 122°15'0 0.0
2014-Apr-16 04:33N 47°45' W 122°15'3 3.0
2014-Apr-16 03:33N 47°42' W 122°16'1 6.3
2014-Apr-16 03:27N 47°42' W 122°15'4 4.0
2014-Apr-16 02:28N 47°39' W 122°19'0 0.6
2014-Apr-16 02:27N 47°39' W 122°19'3 3.1
2014-Apr-16 01:33N 47°40' W 122°23'0 0.6
2014-Apr-16 01:32N 47°40' W 122°23'0 0.1
2014-Apr-16 00:33N 47°40' W 122°24'0 0.0
2014-Apr-16 00:32N 47°40' W 122°24'0 0.2
2014-Apr-15 23:33N 47°40' W 122°24'0 0.3
2014-Apr-15 23:32N 47°40' W 122°24'2 2.5
2014-Apr-15 22:33N 47°39' W 122°27'0 5.6
2014-Apr-15 22:32N 47°39' W 122°27'6 6.4
2014-Apr-15 21:33N 47°32' W 122°28'0 5.5
2014-Apr-15 21:32N 47°32' W 122°28'7 6.7
2014-Apr-15 20:33N 47°26' W 122°31'0 6.0
2014-Apr-15 20:32N 47°26' W 122°31'7 7.4
2014-Apr-15 19:33N 47°19' W 122°33'8 7.6
2014-Apr-15 18:33N 47°12' W 122°36'3 3.1
2014-Apr-15 17:29N 47°09' W 122°38'1 0.5
2014-Apr-15 16:15N 47°08' W 122°39'1 1.8
2014-Apr-15 15:29N 47°09' W 122°38'6 6.4
2014-Apr-15 14:33N 47°15' W 122°34'5 2.4
2014-Apr-15 12:34N 47°19' W 122°34'1119.6
2014-Apr-15 12:01N 47°30' W 122°30'4 8.7
2014-Apr-15 11:34N 47°26' W 122°32'8176.0
2014-Apr-15 11:31N 47°33' W 122°28'0 0.3
2014-Apr-15 10:34N 47°33' W 122°28'7199.9
2014-Apr-15 10:32N 47°40' W 122°27'0 0.2
2014-Apr-15 09:34N 47°40' W 122°27'394.5
2014-Apr-15 09:32N 47°39' W 122°22'0 0.1
2014-Apr-15 08:34N 47°39' W 122°22'514.1
2014-Apr-15 08:12N 47°42' W 122°15'2 3.5
2014-Apr-15 07:33N 47°40' W 122°15'6156.7
2014-Apr-15 07:31N 47°45' W 122°15'0 0.2
2014-Apr-15 06:33N 47°45' W 122°16'  

Dump ship's entire track history

sailing weather and tide predictions

Island Breeze — WDA3596 — position and weather